map of YYG home
YYG - Airport
Location
City:  Charlottetown, Prince Edward Island, Canada
Name:Charlottetown Airport
ICAO:CYYG
IATA:YYG

Details
Type:Airport (Airfield)
Use:Public/Civil
Latitude:4617'21"N (46.289167)
Longitude:6307'09"W (-63.119166)
Elevation:159 ft (48 m)
Variation:17.80W (WMM2015 magnetic declination)
0.14 annual change
Runways:2
Longest:7000 ft (2134 m), paved

Time
Time Zone:UTC-4 (DST-3)
Local Time:

Weather
METAR:CYYG 201300Z 06012KT 010V090 15SM SCT025 BKN054 13/07 A3023 RMK CU3SC3 TCU SH W SLP238
TAF:CYYG 201138Z 2012/2024 06008KT P6SM SCT020 OVC040
TEMPO 2012/2020 5SM -SHRA BR BKN020 OVC040
FM202000 08008KT P6SM BKN040
RMK NXT FCST BY 201800Z

Related Locations
Nearby:
Farthest:YDEK: 11647 mi / 18743 km
Denmark, WA, AU

Find:

   beyond  
but within

Other Information
Maps:
NOTAMs:
Links:
Sources:

  
  • flag of Canada
  • flag of Prince Edward Island
  

Airport Diagram

Airport diagram for YYG

Airport diagram PDF

Sectional Chart

Flight Planning
at skyvector.com

Satellite Image

Google Maps Satellite view

 

Copyright © 2004-2018 Karl L. Swartz. All rights reserved.
The Great Circle Mapper name and logo are trademarks of the Great Circle Mapper.
All other trademarks mentioned herein belong to their respective owners.
Please see credits for attibutions and further copyright information.

  Follow gcmap on Facebook Follow gcmap on Twitter Follow gcmap on Google+ GCmap on LinkedIn

hCard Microformat

Geo Microformat